CW9417 Weather Reports


time (UTC)temp
C
wind
direction
speed
KPH
gust
KPH
rain 1hr
cm
rain 24hr
cm
rain mn
cm
humidity
%
barometer
mb
20260506160920 13 47 3.2 12.9 0.00 0.00 0.00 60 1010.6
20260506160420 13 311 3.2 17.7 0.00 0.00 0.00 60 1010.6
20260506155924 13 245 3.2 19.3 0.00 0.00 0.00 59 1010.6
20260506155419 13 77 3.2 19.3 0.00 0.00 0.00 59 1010.7
20260506154922 13 106 1.6 8.0 0.00 0.00 0.00 57 1010.7
20260506154420 13 345 1.6 8.0 0.00 0.00 0.00 56 1010.7
20260506153918 13 117 1.6 8.0 0.00 0.00 0.00 56 1010.7
20260506153419 13 111 3.2 9.7 0.00 0.00 0.00 56 1010.7
20260506152916 13 110 3.2 9.7 0.00 0.00 0.00 56 1010.6
20260506152417 14 96 3.2 11.3 0.00 0.00 0.00 55 1010.6
20260506151917 14 37 3.2 11.3 0.00 0.00 0.00 56 1010.5
20260506151644 14 30 3.2 9.7 0.00 0.00 0.00 58 1010.5
20260506150935 14 95 4.8 19.3 0.00 0.00 0.00 53 1010.5
20260506150421 14 57 4.8 19.3 0.00 0.00 0.00 52 1010.5
20260506145918 14 32 3.2 14.5 0.00 0.00 0.00 52 1010.4
20260506145637 14 56 4.8 14.5 0.00 0.00 0.00 53 1010.5
20260506144919 14 136 4.8 16.1 0.00 0.00 0.00 56 1010.5
20260506144642 14 77 3.2 16.1 0.00 0.00 0.00 56 1010.5
20260506143918 14 80 3.2 11.3 0.00 0.00 0.00 55 1010.4
20260506143418 14 124 4.8 14.5 0.00 0.00 0.00 57 1010.4
20260506142919 14 94 4.8 14.5 0.00 0.00 0.00 56 1010.4
20260506142419 14 99 4.8 12.9 0.00 0.00 0.00 56 1010.4
20260506141917 15 100 4.8 11.3 0.00 0.00 0.00 55 1010.3
20260506141418 15 92 4.8 12.9 0.00 0.00 0.00 54 1010.4
20260506140918 15 18 3.2 12.9 0.00 0.00 0.00 52 1010.4
20260506140419 15 39 4.8 17.7 0.00 0.00 0.00 56 1010.4
20260506135913 15 51 4.8 17.7 0.00 0.00 0.00 51 1010.3
20260506135415 15 50 4.8 12.9 0.00 0.00 0.00 48 1010.3
20260506134917 15 139 4.8 16.1 0.00 0.00 0.00 49 1010.3
20260506134513 16 53 4.8 17.7 0.00 0.00 0.00 49 1010.3
20260506133410 16 127 6.4 14.5 0.00 0.00 0.00 48 1010.2
20260506132911 16 207 6.4 19.3 0.00 0.00 0.00 46 1010.3
20260506132633 16 109 6.4 19.3 0.00 0.00 0.00 46 1010.2
20260506131910 16 149 4.8 17.7 0.00 0.00 0.00 45 1010.2
20260506131410 16 333 4.8 19.3 0.00 0.00 0.00 44 1010.2
20260506130904 16 74 6.4 19.3 0.00 0.00 0.00 46 1010.1
20260506130403 15 100 6.4 17.7 0.00 0.00 0.00 43 1010.1
20260506125901 15 100 6.4 17.7 0.00 0.00 0.00 43 1010.2
20260506125402 15 30 6.4 19.3 0.00 0.00 0.00 44 1010.1
20260506124905 15 85 6.4 25.7 0.00 0.00 0.00 43 1010.2
20260506124403 15 120 6.4 25.7 0.00 0.00 0.00 44 1010.1
20260506123903 15 97 6.4 19.3 0.00 0.00 0.00 46 1010.1
20260506123402 15 8 6.4 17.7 0.00 0.00 0.00 47 1010.1
20260506122905 15 115 6.4 17.7 0.00 0.00 0.00 48 1010.0
20260506122414 15 27 6.4 17.7 0.00 0.00 0.00 48 1010.1
20260506121900 15 112 6.4 17.7 0.00 0.00 0.00 49 1010.1
20260506121400 15 101 6.4 19.3 0.00 0.00 0.00 50 1010.0
20260506120902 15 27 8.0 19.3 0.00 0.00 0.00 48 1010.0
20260506120654 15 89 8.0 20.9 0.00 0.00 0.00 48 1010.0
20260506120128 15 24 8.0 24.1 0.00 0.00 0.00 46 1010.0
20260506115406 15 195 8.0 24.1 0.00 0.00 0.00 46 1010.0
20260506114900 15 54 6.4 20.9 0.00 0.00 0.00 46 1010.1
20260506114359 15 66 4.8 14.5 0.00 0.00 0.00 48 1009.9
20260506113857 15 52 4.8 22.5 0.00 0.00 0.00 48 1010.0
20260506113356 15 17 8.0 22.5 0.00 0.00 0.00 47 1010.1
20260506113121 15 13 6.4 20.9 0.00 0.00 0.00 48 1010.1
20260506112357 15 65 4.8 17.7 0.00 0.00 0.00 47 1010.1
20260506111857 15 94 6.4 17.7 0.00 0.00 0.00 49 1010.0
20260506111352 15 49 6.4 17.7 0.00 0.00 0.00 50 1009.9
20260506110908 15 58 6.4 17.7 0.00 0.00 0.00 53 1009.9
20260506110354 15 52 6.4 17.7 0.00 0.00 0.00 52 1009.9
20260506105853 15 34 6.4 17.7 0.00 0.00 0.00 52 1009.9
20260506105352 15 46 4.8 17.7 0.00 0.00 0.00 55 1010.0
20260506104855 15 124 4.8 16.1 0.00 0.00 0.00 57 1010.0
20260506104847 15 25 4.8 16.1 0.00 0.00 0.00 59 1010.0
20260506104120 15 31 3.2 16.1 0.00 0.00 0.00 59 1009.9
20260506103355 15 114 3.2 12.9 0.00 0.00 0.00 59 1009.9
20260506102853 14 352 3.2 16.1 0.00 0.00 0.00 58 1009.9
20260506101840 14 125 3.2 11.3 0.00 0.00 0.00 57 1010.0
20260506101335 14 115 3.2 12.9 0.00 0.00 0.00 58 1009.9
20260506100830 14 32 4.8 14.5 0.00 0.00 0.00 59 1009.9
20260506100323 14 45 3.2 14.5 0.00 0.00 0.00 59 1009.9
20260506095817 14 68 3.2 16.1 0.00 0.00 0.00 58 1009.9
20260506095314 14 115 4.8 16.1 0.00 0.00 0.00 58 1009.9
20260506094805 14 54 4.8 16.1 0.00 0.00 0.00 60 1009.9
20260506094522 14 44 4.8 16.1 0.00 0.00 0.00 58 1009.9
20260506093754 14 77 3.2 17.7 0.00 0.00 0.00 57 1009.9
20260506093521 14 91 3.2 17.7 0.00 0.00 0.00 56 1009.8
20260506092741 14 153 3.2 14.5 0.00 0.00 0.00 53 1009.9
20260506092236 14 83 3.2 11.3 0.00 0.00 0.00 53 1009.9
20260506091953 14 36 3.2 12.9 0.00 0.00 0.00 52 1009.8
20260506091225 14 217 3.2 12.9 0.00 0.00 0.00 53 1009.8
20260506090716 14 78 3.2 12.9 0.00 0.00 0.00 53 1009.8
20260506090211 14 302 3.2 12.9 0.00 0.00 0.00 55 1009.7
20260506085705 14 76 3.2 16.1 0.00 0.00 0.00 53 1009.7
20260506085159 14 110 3.2 16.1 0.00 0.00 0.00 55 1009.7
20260506084920 14 38 3.2 12.9 0.00 0.00 0.00 49 1009.6
20260506084414 13 92 4.8 14.5 0.00 0.00 0.00 50 1009.6
20260506083640 13 240 4.8 16.1 0.00 0.00 0.00 50 1009.6
20260506083134 13 164 3.2 16.1 0.00 0.00 0.00 46 1009.5
20260506082630 13 55 3.2 11.3 0.00 0.00 0.00 44 1009.5
20260506082132 13 112 3.2 14.5 0.00 0.00 0.00 43 1009.6
20260506081846 13 275 4.8 14.5 0.00 0.00 0.00 43 1009.6
20260506081131 13 25 3.2 12.9 0.00 0.00 0.00 42 1009.5
20260506080900 13 101 3.2 12.9 0.00 0.00 0.00 41 1009.6
20260506080143 13 348 3.2 11.3 0.00 0.00 0.00 38 1009.5
20260506073125 12 110 3.2 9.7 0.00 0.00 0.00 22 1009.4
20260506072625 12 46 3.2 24.1 0.00 0.00 0.00 20 1009.4
20260506072122 12 233 3.2 24.1 0.00 0.00 0.00 21 1009.4
20260506071623 12 108 3.2 14.5 0.00 0.00 0.00 13 1009.3
20260506071122 12 32 3.2 14.5 0.00 0.00 0.00 10 1009.5
20260506070622 12 50 3.2 16.1 0.00 0.00 0.00 1 1009.5
20260506070124 12 142 3.2 16.1 0.00 0.00 0.00 1 1009.4
20260506062114 11 256 3.2 14.5 0.00 0.00 0.00 1 1009.1
20260506061617 11 344 1.6 14.5 0.00 0.00 0.00 1 1009.1
20260506061115 11 30 1.6 6.4 0.00 0.00 0.00 1 1009.1
20260506060616 11 70 1.6 6.4 0.00 0.00 0.00 1 1009.1
20260506060355 11 195 1.6 9.7 0.00 0.00 0.00 1 1009.0
20260506051110 10 43 1.6 8.0 0.00 0.00 0.00 1 1009.0
20260506050611 10 49 1.6 8.0 0.00 0.00 0.00 1 1009.1
20260506050124 10 6 1.6 8.0 0.00 0.00 0.00 1 1009.1
20260506045108 10 227 1.6 11.3 0.00 0.00 0.00 1 1009.2
20260506044609 10 128 0.0 6.4 0.00 0.00 0.00 1 1009.2
20260506044108 10 248 1.6 8.0 0.00 0.00 0.00 1 1009.2
20260506043611 10 123 1.6 8.0 0.00 0.00 0.00 1 1009.2
20260506043111 10 229 1.6 8.0 0.00 0.00 0.00 1 1009.2
20260506042609 10 92 1.6 11.3 0.00 0.00 0.00 1 1009.2
20260506042111 10 108 1.6 11.3 0.00 0.00 0.00 1 1009.2
20260506041609 10 89 1.6 6.4 0.00 0.00 0.00 1 1009.2
20260506041112 10 44 1.6 8.0 0.00 0.00 0.00 1 1009.2
20260506040611 10 349 1.6 9.7 0.00 0.00 0.00 1 1009.2
20260506040113 10 156 1.6 12.9 0.00 0.00 0.00 1 1009.2
20260506035620 10 59 1.6 12.9 0.00 0.00 0.00 1 1009.3
20260506035108 10 79 0.0 9.7 0.00 0.00 0.00 1 1009.3
20260506034613 10 347 1.6 14.5 0.00 0.00 0.00 1 1009.3
20260506034112 10 113 3.2 14.5 0.00 0.00 0.00 1 1009.3
20260506033829 10 162 1.6 12.9 0.00 0.00 0.00 1 1009.3
20260506033326 10 23 1.6 9.7 0.00 0.00 0.00 1 1009.3
20260506032609 10 203 1.6 6.4 0.00 0.00 0.00 1 1009.4
20260506032107 10 131 1.6 6.4 0.00 0.00 0.00 1 1009.4
20260506031610 10 328 1.6 11.3 0.00 0.00 0.00 1 1009.4
20260506031110 10 51 1.6 11.3 0.00 0.00 0.00 1 1009.4
20260506030611 10 6 1.6 9.7 0.00 0.00 0.00 1 1009.4
20260506030117 10 49 1.6 9.7 0.00 0.00 0.00 1 1009.5
20260506025605 10 72 1.6 6.4 0.00 0.00 0.00 1 1009.5
20260506025105 10 23 1.6 6.4 0.00 0.00 0.00 1 1009.6
20260506024602 10 6 1.6 4.8 0.00 0.00 0.00 1 1009.6
20260506024327 10 76 1.6 4.8 0.00 0.00 0.00 1 1009.5
20260506023607 10 51 1.6 6.4 0.00 0.00 0.00 1 1009.6
20260506023328 10 232 1.6 6.4 0.00 0.00 0.00 1 1009.6
20260506022601 10 44 1.6 4.8 0.00 0.00 0.00 1 1009.6
20260506022058 10 297 0.0 4.8 0.00 0.00 0.00 1 1009.6
20260506021557 10 111 0.0 6.4 0.00 0.00 0.00 1 1009.5
20260506021326 10 108 1.6 9.7 0.00 0.00 0.00 1 1009.6
20260506020547 10 226 1.6 9.7 0.00 0.00 0.00 1 1009.6
20260506020051 10 22 1.6 6.4 0.00 0.00 0.00 1 1009.7
20260506015534 10 2 1.6 6.4 0.00 0.00 0.00 1 1009.7
20260506015027 10 53 1.6 6.4 0.00 0.00 0.00 1 1009.7
20260506014521 10 214 1.6 6.4 0.00 0.00 0.00 1 1009.8
20260506014018 10 63 1.6 8.0 0.00 0.00 0.00 1 1009.8
20260506013511 10 95 0.0 3.2 0.00 0.00 0.00 1 1009.8
20260506013228 10 146 0.0 9.7 0.00 0.00 0.00 1 1009.8
20260506012457 10 115 0.0 9.7 0.00 0.00 0.00 1 1009.8
20260506011957 10 53 0.0 4.8 0.00 0.00 0.00 1 1009.8
20260506011459 10 134 0.0 4.8 0.00 0.00 0.00 1 1009.8
20260506010959 10 195 0.0 4.8 0.00 0.00 0.00 1 1009.9
20260506010458 10 59 0.0 1.6 0.00 0.00 0.00 1 1009.9
20260506010001 10 122 0.0 6.4 0.00 0.00 0.00 1 1009.9
20260506005457 10 47 0.0 6.4 0.00 0.00 0.00 1 1010.0
20260506004956 10 240 0.0 1.6 0.00 0.00 0.00 1 1010.0
20260506003957 10 55 0.0 6.4 0.00 0.00 0.00 1 1010.2
20260506003453 10 41 0.0 6.4 0.00 0.00 0.00 1 1010.2
20260506002955 10 63 0.0 1.6 0.00 0.00 0.00 1 1010.3
20260506002451 10 115 0.0 3.2 0.00 0.00 0.00 1 1010.4
20260506001950 10 276 0.0 3.2 0.00 0.00 0.00 1 1010.4
20260506001449 10 7 0.0 3.2 0.00 0.00 0.00 1 1010.5
20260506001213 10 54 0.0 6.4 0.00 0.00 0.00 1 1010.5
20260506000719 10 215 0.0 6.4 0.00 0.00 0.00 1 1010.5
20260505235950 10 96 0.0 4.8 0.00 0.00 0.00 1 1010.5
20260505235450 10 243 0.0 4.8 0.00 0.00 0.00 1 1010.6
20260505234944 10 250 0.0 4.8 0.00 0.00 0.00 1 1010.6
20260505234438 10 98 1.6 8.0 0.00 0.00 0.00 1 1010.6
20260505234155 10 120 0.0 8.0 0.00 0.00 0.00 1 1010.6
20260505233427 10 316 0.0 3.2 0.00 0.00 0.00 1 1010.7
20260505233145 10 118 1.6 6.4 0.00 0.00 0.00 1 1010.8
20260505232415 10 5 1.6 8.0 0.00 0.00 0.00 1 1010.9
20260505231909 10 245 1.6 12.9 0.00 0.00 0.00 1 1010.9
20260505231628 10 275 3.2 14.5 0.00 0.00 0.00 1 1010.9
20260505230855 10 32 1.6 14.5 0.00 0.00 0.00 1 1010.9
20260505230351 10 270 1.6 6.4 0.00 0.00 0.00 1 1010.9
20260505225846 10 64 1.6 16.1 0.00 0.00 0.00 1 1010.9
20260505225339 10 330 1.6 16.1 0.00 0.00 0.00 5 1010.9
20260505224835 10 122 1.6 8.0 0.00 0.00 0.00 6 1010.9
20260505224327 10 349 1.6 8.0 0.00 0.00 0.00 11 1010.9
20260505223821 10 51 0.0 6.4 0.00 0.00 0.00 12 1011.0
20260505223316 10 117 0.0 6.4 0.00 0.00 0.00 16 1011.0
20260505222808 10 257 1.6 12.9 0.00 0.00 0.00 16 1011.0
20260505222305 10 120 1.6 12.9 0.00 0.00 0.00 16 1011.0
20260505222252 10 30 1.6 9.7 0.00 0.00 0.00 14 1011.1
20260505221250 10 66 1.6 9.7 0.00 0.00 0.00 14 1011.0
20260505220743 10 159 1.6 8.0 0.00 0.00 0.00 17 1011.1
20260505220239 10 60 1.6 9.7 0.00 0.00 0.00 19 1011.1
20260505215731 10 252 1.6 9.7 0.00 0.00 0.00 21 1011.1
20260505215227 10 39 1.6 8.0 0.00 0.00 0.00 22 1011.2
20260505214720 10 49 1.6 8.0 0.00 0.00 0.00 24 1011.2
20260505214214 10 75 1.6 12.9 0.00 0.00 0.00 24 1011.3
20260505213708 10 48 3.2 12.9 0.00 0.00 0.00 28 1011.3
20260505213201 10 60 1.6 9.7 0.00 0.00 0.00 30 1011.4
20260505212656 10 205 1.6 9.7 0.00 0.00 0.00 33 1011.4
20260505212151 10 99 1.6 8.0 0.00 0.00 0.00 36 1011.4
20260505211644 10 4 1.6 8.0 0.00 0.00 0.00 37 1011.3
20260505211141 10 168 1.6 6.4 0.00 0.00 0.00 40 1011.4
20260505210632 11 82 1.6 9.7 0.00 0.00 0.00 40 1011.4
20260505210128 11 326 3.2 9.7 0.00 0.00 0.00 40 1011.4
20260505205626 11 107 3.2 9.7 0.00 0.00 0.00 42 1011.5
20260505205115 11 122 3.2 9.7 0.00 0.00 0.00 42 1011.5
20260505204609 11 32 4.8 9.7 0.00 0.00 0.00 45 1011.5
20260505204102 11 26 4.8 11.3 0.00 0.00 0.00 46 1011.5
20260505203555 11 33 4.8 12.9 0.00 0.00 0.00 44 1011.5
20260505203049 11 82 3.2 12.9 0.00 0.00 0.00 44 1011.4
20260505202546 11 30 1.6 9.7 0.00 0.00 0.00 43 1011.4
20260505202039 11 143 1.6 9.7 0.00 0.00 0.00 44 1011.4
20260505201537 11 58 3.2 11.3 0.00 0.00 0.00 48 1011.3
20260505201255 11 51 3.2 11.3 0.00 0.00 0.00 50 1011.3
20260505200520 11 36 3.2 12.9 0.00 0.00 0.00 50 1011.3
20260505200237 11 248 3.2 12.9 0.00 0.00 0.00 48 1011.3
20260505195510 11 57 1.6 12.9 0.00 0.00 0.00 46 1011.2
20260505195221 11 236 1.6 6.4 0.00 0.00 0.00 41 1011.2
20260505194456 11 345 1.6 6.4 0.00 0.00 0.00 40 1011.1
20260505193950 11 195 1.6 8.0 0.00 0.00 0.00 36 1011.1
20260505193703 11 79 0.0 8.0 0.00 0.00 0.00 37 1011.1
20260505192937 11 267 0.0 3.2 0.00 0.00 0.00 36 1011.0
20260505192432 11 105 0.0 3.2 0.00 0.00 0.00 39 1011.1
20260505192150 11 58 0.0 6.4 0.00 0.00 0.00 40 1011.0
20260505191423 11 149 0.0 6.4 0.00 0.00 0.00 44 1011.0
20260505190914 11 285 1.6 9.7 0.00 0.00 0.00 42 1010.9
20260505190408 11 327 1.6 9.7 0.00 0.00 0.00 45 1010.9
20260505185903 11 21 0.0 6.4 0.00 0.00 0.00 40 1010.8
20260505185357 11 120 0.0 4.8 0.00 0.00 0.00 42 1010.9
20260505184857 11 149 1.6 6.4 0.00 0.00 0.00 43 1010.8
20260505184358 11 250 1.6 11.3 0.00 0.00 0.00 45 1010.8
20260505183858 11 205 1.6 11.3 0.00 0.00 0.00 46 1010.8
20260505183621 12 60 1.6 11.3 0.00 0.00 0.00 46 1010.8
20260505182900 12 136 1.6 11.3 0.00 0.00 0.00 47 1010.9
20260505182400 12 28 1.6 8.0 0.00 0.00 0.00 47 1010.8
20260505181859 12 34 3.2 11.3 0.00 0.00 0.00 48 1010.9
20260505181358 12 15 3.2 11.3 0.00 0.00 0.00 49 1010.9
20260505180859 12 77 1.6 11.3 0.00 0.00 0.00 49 1010.9
20260505180357 12 8 1.6 8.0 0.00 0.00 0.00 48 1010.9
20260505180125 12 63 1.6 11.3 0.00 0.00 0.00 50 1010.9
20260505175358 12 245 3.2 11.3 0.00 0.00 0.00 49 1010.9
20260505174857 12 39 3.2 12.9 0.00 0.00 0.00 52 1010.9
20260505174353 12 174 1.6 12.9 0.00 0.00 0.00 52 1010.9
20260505173855 12 100 3.2 14.5 0.00 0.00 0.00 52 1010.9
20260505173356 12 340 1.6 14.5 0.00 0.00 0.00 54 1010.9
20260505172855 13 131 1.6 11.3 0.00 0.00 0.00 53 1010.9
20260505172351 13 190 3.2 11.3 0.00 0.00 0.00 54 1010.9
20260505171850 13 310 3.2 14.5 0.00 0.00 0.00 55 1010.9
20260505171350 13 197 3.2 14.5 0.00 0.00 0.00 56 1010.9
20260505170853 13 217 3.2 12.9 0.00 0.00 0.00 56 1010.9
20260505170352 13 179 1.6 12.9 0.00 0.00 0.00 58 1010.8
20260505170337 13 61 1.6 12.9 0.00 0.00 0.00 58 1010.8
20260505165348 13 243 3.2 12.9 0.00 0.00 0.00 59 1010.8
20260505165120 14 21 3.2 14.5 0.00 0.00 0.00 59 1010.8
20260505164347 14 75 3.2 17.7 0.00 0.00 0.00 59 1010.9
20260505163845 14 307 3.2 17.7 0.00 0.00 0.00 59 1010.9
20260505163345 14 35 3.2 12.9 0.00 0.00 0.00 59 1010.9
20260505162848 14 63 4.8 14.5 0.00 0.00 0.00 59 1010.9
20260505162840 15 45 3.2 17.7 0.00 0.00 0.00 59 1010.9
20260505161841 15 27 3.2 17.7 0.00 0.00 0.00 59 1010.9
20260505161601 15 45 3.2 14.5 0.00 0.00 0.00 59 1010.9